Regional Weather Roundup
Issued by NWS Sioux Falls, SD

Home | Current Version | Previous Version | Graphics & Text | Print | Product List | Glossary On
Versions: 1 2 3 4 5 6 7 8 9 10 11 12 13 14 15 16 17 18 19 20 21 22 23 24 25 26 27 28 29 30 31 32 33 34 35 36 37 38 39 40 41 42 43 44 45 46 47 48 49 50
000
ASUS43 KFSD 260610
RWRFSD

WEATHER ROUNDUP FOR SE SOUTH DAKOTA/SW MINNESOTA/NW IOWA
NATIONAL WEATHER SERVICE SIOUX FALLS SD
100 AM CDT WED JUL 26 2017

NOTE: "FAIR" INDICATES FEW OR NO CLOUDS BELOW 12,000 FEET WITH NO
SIGNIFICANT WEATHER AND OR OBSTRUCTIONS TO VISIBILITY.


SDZ038>040-050-052>070-260700-
SOUTHEAST SOUTH DAKOTA

CITY           SKY/WX    TMP DP  RH WIND       PRES   REMARKS
BROOKINGS      LGT RAIN  72  69  90 S13       29.98F
CHAMBERLAIN    CLOUDY    71  70  97 CALM      29.98R
6HR MIN TEMP:  70; 6HR MAX TEMP:  92; 6HR PCP:  0.04;

HURON          CLOUDY    71  70  96 E6        29.96S
6HR MIN TEMP:  71; 6HR MAX TEMP:  80; 6HR PCP:  0.06;

MADISON        LGT RAIN  68  68 100 S10       29.99F
MITCHELL       CLOUDY    72  68  87 SE21G26   29.91F
6HR MIN TEMP:  70; 6HR MAX TEMP:  77; 6HR PCP:  1.04;

SIOUX FALLS    LGT RAIN  71  71 100 NE5       30.01F
6HR MIN TEMP:  71; 6HR MAX TEMP:  89; 6HR PCP:  0.39;

WINNER         FAIR      72  69  90 E8        29.97F
YANKTON        CLOUDY    71  70  96 N9        29.99F
$$

MNZ071-072-080-081-089-090-097-098-260700-
SOUTHWEST MINNESOTA

CITY           SKY/WX    TMP DP  RH WIND       PRES   REMARKS
FAIRMONT       CLOUDY    77  73  87 S7        29.99F
JACKSON        CLOUDY    77  72  83 CALM      29.99F
LUVERNE        CLOUDY    70  64  83 NW17G33   30.02F
MARSHALL       LGT RAIN  73  70  90 SW9       29.98R
6HR MIN TEMP:  71; 6HR MAX TEMP:  78; 6HR PCP:  0.16;

MONTEVIDEO     CLOUDY    72  66  83 N5        29.98R
PIPESTONE      LGT RAIN  70  66  88 N8        30.06F
REDWOOD FALLS  LGT RAIN  73  70  90 NE3       29.96S
TRACY          LGT RAIN  75  73  94 SW6       29.99R
WINDOM         LGT RAIN  75  73  94 CALM      29.99S
WORTHINGTON    CLOUDY    74  73  97 CALM      30.01F
$$

IAZ001>003-012>014-020>022-031-032-NEZ013-014-SDZ071-260700-
NORTHWEST IOWA

CITY           SKY/WX    TMP DP  RH WIND       PRES   REMARKS
DENISON        CLOUDY    79  75  89 S15       30.00F
ESTHERVILLE    CLOUDY    75  74  96 S6        29.98F
ORANGE CITY    CLOUDY    81  75  83 W6        30.02R
SHELDON        CLOUDY    79  75  89 W9        30.01R
SIOUX CITY     CLOUDY    80  74  81 SE8       29.93F
6HR MIN TEMP:  78; 6HR MAX TEMP:  90;

SPENCER        CLOUDY    79  73  82 S7        29.98F
6HR MIN TEMP:  78; 6HR MAX TEMP:  86;

STORM LAKE     CLOUDY    77  73  88 S12       29.99F
$$

ABBREVIATIONS USED IN REMARKS
   TC - TEMPERATURE IN CELSIUS
  WCI - WIND CHILL INDEX
   HX - HEAT INDEX
  VSB - VISIBILITY





USA.gov is the U.S. government's official web portal to all federal, state and local government web resources and services.